Waarnemingen

Advertentie
Mijn weer
Gioia Del Colle, Italië (16312): temperatuur & dauwpunt: 17.10.2018 22:00:00 - 23.10.2018 22:00:00 (CEST)Gioia Del Colle, Italië (16312): windsnelheid: 17.10.2018 22:00:00 - 23.10.2018 22:00:00 (CEST)Gioia Del Colle, Italië (16312): windrichting: 17.10.2018 22:00:00 - 23.10.2018 22:00:00 (CEST)Gioia Del Colle, Italië (16312): luchtdruk: 17.10.2018 22:00:00 - 23.10.2018 22:00:00 (CEST)Gioia Del Colle, Italië (16312): zicht: 17.10.2018 22:00:00 - 23.10.2018 22:00:00 (CEST)
Datum & Tijd tt [°C] td [°C] ff [km/u] ff [kn] dd ppp [hPa] vv [km]
23.10.2018 22:00:00 14,0 11,0 16 9 NW - 10
23.10.2018 21:00:00 15,0 11,0 18 10 NW - 10
23.10.2018 20:00:00 14,8 11,2 15 8 NNW 1015,5 10
23.10.2018 19:00:00 15,0 11,0 18 10 N - 10
23.10.2018 18:00:00 16,0 12,0 18 10 NNW - 10
23.10.2018 17:00:00 17,4 10,3 24 13 N 1013,9 10
23.10.2018 16:00:00 18,0 11,0 29 16 NNO - 10
23.10.2018 15:00:00 18,0 11,0 31 17 N - 10
23.10.2018 14:00:00 18,6 13,0 29 16 NNO 1014,5 8
23.10.2018 13:00:00 19,0 13,0 28 15 NNO - 8
23.10.2018 12:00:00 18,0 13,0 28 15 NNO - 7
23.10.2018 11:00:00 18,0 14,9 24 13 NNO 1014,8 7
23.10.2018 10:00:00 17,0 17,0 16 9 NNO - 6
23.10.2018 09:00:00 15,0 15,0 8 4 N - 5
23.10.2018 08:00:00 15,0 14,2 11 6 NNW 1014,0 3,0
23.10.2018 07:00:00 15,0 15,0 11 6 NNW - 6
23.10.2018 06:00:00 15,0 15,0 9 5 N - 6
23.10.2018 05:00:00 15,0 15,0 13 7 N 1012,5 6
23.10.2018 04:00:00 15,0 15,0 9 5 N - 6
23.10.2018 03:00:00 15,0 15,0 11 6 N - 10
23.10.2018 02:00:00 15,0 14,7 8 4 N 1013,2 7
23.10.2018 01:00:00 15,0 13,0 9 5 NNO - 7
23.10.2018 00:00:00 15,0 13,0 5 3 ZZO - 7
22.10.2018 23:00:00 15,0 13,4 18 10 ONO 1013,3 7
22.10.2018 22:00:00 15,0 13,0 16 9 O - 7
22.10.2018 21:00:00 15,0 13,0 26 14 O - 7
22.10.2018 20:00:00 14,8 13,4 11 6 O 1011,6 7
22.10.2018 19:00:00 15,0 13,0 11 6 OZO - 7
22.10.2018 18:00:00 15,0 13,0 22 12 O - 7
22.10.2018 17:00:00 15,8 13,8 26 14 O 1010,2 7
22.10.2018 16:00:00 16,0 15,0 18 10 O - 6
22.10.2018 15:00:00 15,0 14,0 18 10 O - 4,5
22.10.2018 14:00:00 15,4 14,1 15 8 O 1011,0 4,5
22.10.2018 13:00:00 15,0 13,0 21 11 OZO - 6
22.10.2018 12:00:00 15,0 14,0 16 9 O - 6
22.10.2018 11:00:00 14,2 13,9 11 6 OZO 1012,1 4,5
22.10.2018 10:00:00 14,0 13,0 11 6 ZZO - 4,5
22.10.2018 09:00:00 14,0 13,0 13 7 Z - 4,0
22.10.2018 08:00:00 13,4 13,1 2 1 N 1012,3 6
22.10.2018 07:00:00 13,0 13,0 5 3 NNO - 6
22.10.2018 06:00:00 13,0 12,0 4 2 - - 6
22.10.2018 05:00:00 13,4 12,1 2 1 - 1013,3 7
22.10.2018 04:00:00 14,0 13,0 9 5 N - 7
22.10.2018 03:00:00 14,0 12,0 11 6 NW - 9
22.10.2018 02:00:00 14,8 12,3 4 2 N 1014,9 9
22.10.2018 01:00:00 15,0 13,0 4 2 NNW - 9
22.10.2018 00:00:00 15,0 13,0 5 3 NNW - 7
21.10.2018 23:00:00 15,0 12,9 9 5 NNW 1015,8 7
21.10.2018 22:00:00 15,0 13,0 13 7 N - 7
21.10.2018 21:00:00 16,0 13,0 13 7 NNW - 7
21.10.2018 20:00:00 16,0 12,2 11 6 N 1015,6 10
21.10.2018 19:00:00 16,0 12,0 11 6 N - 10
21.10.2018 18:00:00 17,0 13,0 16 9 NNW - 10
21.10.2018 17:00:00 17,8 10,4 15 8 N 1015,1 10
21.10.2018 16:00:00 18,0 10,0 16 9 N - 10
21.10.2018 15:00:00 19,0 10,0 16 9 NNW - 10
21.10.2018 14:00:00 19,2 10,5 9 5 NNW 1016,1 10
21.10.2018 13:00:00 19,0 11,0 15 8 NNW - 10
21.10.2018 12:00:00 19,0 11,0 18 10 NNW - 10
21.10.2018 11:00:00 18,0 11,5 16 9 NNW 1017,5 10
21.10.2018 10:00:00 18,0 12,0 16 9 NNW - 7
21.10.2018 09:00:00 16,0 13,0 16 9 NNW - 7
21.10.2018 08:00:00 13,6 11,7 13 7 WNW 1017,9 6
21.10.2018 07:00:00 14,0 12,0 13 7 NW - 6
21.10.2018 06:00:00 14,0 12,0 15 8 NW - 6
21.10.2018 05:00:00 14,0 12,0 15 8 NW 1018,4 6
21.10.2018 04:00:00 14,0 12,0 11 6 NW - 6
21.10.2018 03:00:00 15,0 12,0 13 7 NW - 7
21.10.2018 02:00:00 14,8 12,0 15 8 NW 1019,3 7
21.10.2018 01:00:00 15,0 12,0 16 9 NW - 6
21.10.2018 00:00:00 15,0 12,0 15 8 NW - 6
20.10.2018 23:00:00 15,0 14,2 15 8 NW 1019,8 4,8
20.10.2018 22:00:00 15,0 14,0 13 7 NW - 4,8
20.10.2018 21:00:00 15,0 14,0 15 8 NW - 4,5
20.10.2018 20:00:00 16,0 14,5 11 6 NW 1019,5 5
20.10.2018 19:00:00 17,0 14,0 11 6 NNW - 7
20.10.2018 18:00:00 18,0 13,0 15 8 NNW - 10
20.10.2018 17:00:00 19,8 12,8 21 11 N 1018,6 10
20.10.2018 16:00:00 21,0 10,0 21 11 N - 10
20.10.2018 15:00:00 22,0 8,0 22 12 N - 10
20.10.2018 14:00:00 21,4 8,7 24 13 N 1018,9 10
20.10.2018 13:00:00 21,0 9,0 24 13 N - 10
20.10.2018 12:00:00 21,0 9,0 21 11 N - 10
20.10.2018 11:00:00 20,4 9,0 18 10 NNW 1019,1 10
20.10.2018 10:00:00 19,0 10,0 15 8 NNW - 10
20.10.2018 09:00:00 16,0 13,0 8 4 NW - 10
20.10.2018 08:00:00 13,4 11,1 5 3 NW 1018,2 10
20.10.2018 07:00:00 13,0 11,0 5 3 NW - 6
20.10.2018 06:00:00 13,0 11,0 5 3 NW - 4,5
20.10.2018 05:00:00 13,6 10,2 5 3 NNW 1017,8 3,5
20.10.2018 04:00:00 14,0 14,0 8 4 WNW - 3,0
20.10.2018 03:00:00 14,0 14,0 8 4 NNW - 1,0
20.10.2018 02:00:00 15,8 15,8 9 5 NNW 1017,5 0,4
20.10.2018 01:00:00 16,0 16,0 9 5 N - 0,1
20.10.2018 00:00:00 16,0 16,0 5 3 NNW - 0,1
19.10.2018 23:00:00 16,0 16,0 8 4 N 1017,1 0,1
19.10.2018 22:00:00 16,0 16,0 8 4 NW - 0,5
19.10.2018 21:00:00 16,0 16,0 9 5 N - 4,0
19.10.2018 20:00:00 16,6 15,8 9 5 N 1016,8 5
19.10.2018 19:00:00 17,0 15,0 11 6 N - 7
19.10.2018 18:00:00 19,0 15,0 13 7 N - 9
19.10.2018 17:00:00 20,0 13,9 15 8 N 1015,9 10
19.10.2018 16:00:00 21,0 14,0 13 7 N - 10
19.10.2018 15:00:00 21,0 14,0 15 8 N - 10
19.10.2018 14:00:00 21,2 14,4 16 9 N 1015,9 10
19.10.2018 13:00:00 21,0 16,0 16 9 N - 9
19.10.2018 12:00:00 20,0 16,0 11 6 N - 8
19.10.2018 11:00:00 18,2 15,6 11 6 N 1016,2 7
19.10.2018 10:00:00 17,0 17,0 15 8 N - 6
19.10.2018 09:00:00 16,0 16,0 21 11 N - 3,5
19.10.2018 08:00:00 16,0 16,0 13 7 N 1015,4 0,1
19.10.2018 07:00:00 15,0 15,0 8 4 N - 0,1
19.10.2018 06:00:00 15,0 15,0 8 4 N - 0,3
19.10.2018 05:00:00 15,4 15,4 4 2 WNW 1015,3 2,0
19.10.2018 04:00:00 15,0 15,0 8 4 NNO - 2,0
19.10.2018 03:00:00 15,0 15,0 4 2 - - 0,6
19.10.2018 02:00:00 15,0 15,0 5 3 N 1015,3 0,2
19.10.2018 01:00:00 15,0 15,0 4 2 ZW - 0,2
19.10.2018 00:00:00 15,0 15,0 4 2 NW - 0,2
18.10.2018 23:00:00 15,2 15,2 4 2 W 1015,0 3,5
18.10.2018 22:00:00 16,0 16,0 5 3 N - 5
18.10.2018 21:00:00 17,0 17,0 5 3 N - 6
18.10.2018 20:00:00 17,4 15,7 8 4 NNO 1014,8 10
18.10.2018 19:00:00 18,0 16,0 9 5 NNO - 10
18.10.2018 18:00:00 20,0 18,0 11 6 N - 10
18.10.2018 17:00:00 21,0 17,4 15 8 NNO 1013,0 10
18.10.2018 16:00:00 22,0 17,0 16 9 NO - 10
18.10.2018 15:00:00 24,0 9,0 5 3 - - 10
18.10.2018 14:00:00 23,6 9,6 11 6 ZZO 1013,5 10
18.10.2018 13:00:00 22,0 14,0 2 1 - - 10
18.10.2018 12:00:00 21,0 17,0 8 4 ONO - 10
18.10.2018 11:00:00 17,6 17,3 8 4 NNO 1015,9 6
18.10.2018 10:00:00 16,0 16,0 8 4 NNO - 1,5
18.10.2018 09:00:00 16,0 16,0 9 5 N - 0,1
18.10.2018 08:00:00 14,0 14,0 5 3 N 1015,5 0,1
18.10.2018 07:00:00 13,0 13,0 2 1 - - 0,3
18.10.2018 06:00:00 13,0 13,0 4 2 O - 0,1
18.10.2018 05:00:00 12,8 12,8 4 2 N 1015,7 0,2
18.10.2018 04:00:00 13,0 13,0 4 2 N - 0,3
18.10.2018 03:00:00 14,0 14,0 2 1 O - 0,3
18.10.2018 02:00:00 14,0 14,0 0 0 N 1016,4 0,2
18.10.2018 01:00:00 15,0 15,0 2 1 W - 0,2
18.10.2018 00:00:00 15,0 15,0 2 1 W - 0,2
17.10.2018 23:00:00 15,0 15,0 4 2 WZW 1016,6 0,2
17.10.2018 22:00:00 17,0 17,0 4 2 OZO - 8

tt = temperatuur
td = dauwpunt
ff = windsnelheid
dd = windrichting
ppp = luchtdruk
vv = zicht

Weerstations in de omgeving